Home   Weather   Tangier   Past weeks

Flag for Morocco Past Weather in Tangier, Morocco — Yesterday and Last 2 Weeks

Now
70 °F

Scattered clouds.


Feels Like: 70 °F
Forecast: 58 / 67 °F
Wind: 12 mph from Northwest

Location: Tanger Aerodrome

Current Time: Apr 27, 2017 at 4:27:20 pm

Latest Report: Apr 27, 2017 at 4:00 pm


Visibility: N/A

Pressure: 29.80 "Hg

Humidity: 57%

Dew Point: 54 °F

Location of TangierLocation

Past Weather in Tangier — Graph

°F

Tangier Temperature Yesterday

Maximum temperature yesterday: 70 °F (at 12:30 pm)
Minimum temperature yesterday: 57 °F (at 11:00 pm)
Average temperature yesterday: 63 °F

High & Low Weather Summary for the Past Weeks

 TemperatureHumidityPressure
High81 °F (Apr 12, 4:00 pm)94% (Apr 14, 2:00 am)30.18 "Hg (Apr 14, 2:00 am)
Low50 °F (Apr 15, 5:30 am)30% (Apr 12, 3:30 pm)29.77 "Hg (Apr 18, 3:30 pm)
Average64 °F71%29.98 "Hg
* Reported Apr 12 3:00 pm — Apr 27 3:00 pm, Tangier, Weather by CustomWeather, © 2017

Note: Actual official high and low records may vary slightly from our data, if they occured in-between our weather recording intervals... More about our weather records

Advertising

Tangier Weather History for the Previous 24 Hours

Scroll right to see more
 ConditionsComfort  
Time TempWeatherWind HumidityBarometerVisibility
3:00 pm
Thu, Apr 27
72 °FScattered clouds.9 mph53%29.83 "HgN/A
2:30 pm72 °FScattered clouds.8 mph57%29.83 "HgN/A
1:30 pm72 °FPartly sunny.8 mph53%29.83 "HgN/A
1:00 pm70 °FPartly sunny.10 mph57%29.86 "HgN/A
12:30 pm70 °FScattered clouds.12 mph57%29.86 "HgN/A
12:00 pm70 °FScattered clouds.7 mph60%29.86 "Hg5 mi
11:30 am70 °FScattered clouds.9 mph60%29.86 "Hg5 mi
11:00 am66 °FScattered clouds.7 mph68%29.86 "Hg5 mi
10:30 am66 °FBroken clouds.3 mph68%29.86 "Hg5 mi
10:00 am64 °FBroken clouds.6 mph73%29.86 "Hg5 mi
9:30 am64 °FBroken clouds.3 mph78%29.86 "Hg5 mi
9:00 am63 °FBroken clouds.6 mph77%29.86 "Hg5 mi
8:00 am61 °FBroken clouds.6 mph83%29.86 "Hg5 mi
7:30 am59 °FBroken clouds.No wind82%29.86 "Hg5 mi
7:00 am59 °FPartly sunny.3 mph88%29.83 "Hg5 mi
6:30 am59 °FPartly sunny.5 mph88%29.83 "Hg5 mi
6:00 am59 °FPartly sunny.3 mph88%29.83 "Hg5 mi
5:30 am59 °FPassing clouds.3 mph88%29.83 "Hg5 mi
5:00 am59 °FPassing clouds.2 mph88%29.83 "Hg5 mi
4:30 am57 °FPassing clouds.No wind88%29.86 "Hg5 mi
4:00 am55 °FPassing clouds.No wind88%29.86 "Hg5 mi
3:30 am55 °FPassing clouds.No wind88%29.86 "Hg5 mi
3:00 am57 °FPassing clouds.3 mph88%29.86 "Hg5 mi
2:30 am55 °FPassing clouds.No wind88%29.86 "Hg5 mi
2:00 am57 °FPassing clouds.5 mph88%29.86 "Hg5 mi
1:30 am57 °FPassing clouds.No wind82%29.86 "Hg5 mi
1:00 am57 °FPassing clouds.No wind82%29.89 "Hg5 mi
12:30 am55 °FPassing clouds.No wind88%29.89 "Hg5 mi
12:00 am55 °FPassing clouds.No wind88%29.89 "Hg5 mi
11:30 pm
Wed, Apr 26
57 °FPassing clouds.No wind82%29.89 "Hg5 mi
11:00 pm57 °FPassing clouds.No wind82%29.89 "Hg5 mi
10:30 pm59 °FPassing clouds.2 mph82%29.89 "Hg5 mi
10:00 pm59 °FPassing clouds.3 mph82%29.89 "Hg5 mi
9:30 pm59 °FPassing clouds.3 mph82%29.89 "Hg5 mi
9:00 pm61 °FPassing clouds.5 mph77%29.86 "Hg5 mi
8:30 pm61 °FPassing clouds.6 mph77%29.86 "Hg5 mi
8:00 pm63 °FPassing clouds.6 mph73%29.86 "Hg5 mi
7:00 pm64 °FScattered clouds.8 mph68%29.86 "Hg5 mi
6:30 pm66 °FScattered clouds.8 mph68%29.86 "Hg5 mi
6:00 pm66 °FScattered clouds.9 mph68%29.86 "Hg5 mi
5:30 pm66 °FBroken clouds.8 mph68%29.86 "Hg5 mi
5:00 pm68 °FScattered clouds.8 mph64%29.86 "Hg5 mi
4:30 pm68 °FBroken clouds.9 mph64%29.86 "Hg5 mi
4:00 pm68 °FBroken clouds.9 mph64%29.89 "Hg5 mi
Weather by CustomWeather, © 2017

See weather overviewHow to use our weather pages